Change the Weather History Date:

Monday, August 4, 2014

  Actual Average Record
Temperature  
Mean Temperature 77 °F -  
Max Temperature 91 °F 91 °F 109 °F (1964)
Min Temperature 63 °F 67 °F 56 °F (1975)
Cooling Degree Days 12    
Growing Degree Days 27 (Base 50)    
Moisture  
Dew Point 59 °F    
Average Humidity 57    
Maximum Humidity 90    
Minimum Humidity 32    
Precipitation  
Precipitation 0.00 in - - ()
Sea Level Pressure  
Sea Level Pressure 30.03 in    
Wind  
Wind Speed 11 mph (SSW)    
Max Wind Speed 18 mph    
Max Gust Speed -    
Visibility 10 miles    
Events      
Averages and records for this station are not official NWS values.
T = Trace of Precipitation, MM = Missing Value Source: NWS Daily Summary

Daily Weather History Graph

Daily Weather History Graph

Search for Another Location

Airport or City:

Trip Planner

Search our weather history database for the weather conditions in past years. The results will help you decide how hot, cold, wet, or windy it might be!

Date:

Astronomy

Aug. 04, 2014 Rise Set
Actual Time 6:48 AM CDT 8:41 PM CDT
Civil Twilight 6:20 AM CDT 9:09 PM CDT
Nautical Twilight 5:45 AM CDT 9:43 PM CDT
Astronomical Twilight 5:09 AM CDT 10:20 PM CDT
Moon 2:56 PM CDT (8/4) 12:54 AM CDT (8/4)
Length of Visible Light 14h 49m
Length of Day
13h 53m
First Quarter, 57% of the Moon is Illuminated
Aug 4
First Quarter
Aug 10
Full
Aug 17
Last Quarter
Aug 25
New
Sep 2
First Quarter

Hourly Weather History & Observations

Time (CDT) Temp. Heat Index Dew Point Humidity Pressure Visibility Wind Dir Wind Speed Gust Speed Precip Events Conditions
12:53 AM 69.1 °F - 59.0 °F 70% 30.06 in 6.0 mi South 10.4 mph - N/A   Haze
1:53 AM 68.0 °F - 59.0 °F 73% 30.06 in 10.0 mi South 11.5 mph - N/A   Clear
2:53 AM 66.0 °F - 60.1 °F 81% 30.05 in 10.0 mi South 9.2 mph - N/A   Clear
4:53 AM 64.9 °F - 60.1 °F 84% 30.04 in 10.0 mi SW 6.9 mph - N/A   Clear
5:53 AM 64.9 °F - 60.1 °F 84% 30.05 in 10.0 mi SW 10.4 mph - N/A   Clear
6:53 AM 63.0 °F - 60.1 °F 90% 30.06 in 9.0 mi SW 5.8 mph - N/A   Clear
7:53 AM 66.9 °F - 61.0 °F 81% 30.07 in 10.0 mi SW 8.1 mph - N/A   Clear
8:53 AM 73.0 °F - 61.0 °F 66% 30.09 in 10.0 mi SSW 12.7 mph - N/A   Clear
9:53 AM 78.1 °F - 61.0 °F 56% 30.09 in 10.0 mi SW 18.4 mph - N/A   Clear
10:53 AM 82.0 °F 82.7 °F 61.0 °F 49% 30.07 in 10.0 mi SW 18.4 mph - N/A   Clear
11:53 AM 84.0 °F 84.0 °F 60.1 °F 44% 30.06 in 10.0 mi SW 15.0 mph - N/A   Clear
12:53 PM 87.1 °F 86.5 °F 59.0 °F 39% 30.05 in 10.0 mi SSW 15.0 mph - N/A   Clear
1:53 PM 88.0 °F 86.9 °F 57.9 °F 36% 30.04 in 10.0 mi South 16.1 mph - N/A   Clear
2:53 PM 89.1 °F 87.7 °F 57.0 °F 34% 30.01 in 10.0 mi SSW 11.5 mph - N/A   Clear
3:53 PM 90.0 °F 88.8 °F 57.9 °F 34% 30.00 in 10.0 mi SSW 11.5 mph - N/A   Clear
4:53 PM 91.0 °F 89.7 °F 57.0 °F 32% 29.98 in 10.0 mi South 10.4 mph - N/A   Clear
5:53 PM 90.0 °F 88.6 °F 57.0 °F 33% 29.97 in 10.0 mi South 13.8 mph - N/A   Clear
6:53 PM 87.1 °F 85.9 °F 57.0 °F 36% 29.97 in 10.0 mi South 9.2 mph - N/A   Clear
7:53 PM 82.9 °F 83.2 °F 60.1 °F 46% 29.99 in 10.0 mi South 8.1 mph - N/A   Clear
8:53 PM 77.0 °F - 61.0 °F 58% 30.00 in 10.0 mi South 9.2 mph - N/A   Clear
9:53 PM 75.9 °F - 60.1 °F 58% 30.01 in 10.0 mi South 9.2 mph - N/A   Clear
10:53 PM 73.0 °F - 61.0 °F 66% 30.02 in 10.0 mi South 10.4 mph - N/A   Clear
11:53 PM 73.0 °F - 61.0 °F 66% 30.02 in 10.0 mi South 10.4 mph - N/A   Clear